Showing default

PEARL WHITE 1, 44497

Orbit data source: Space-Track

PEARL WHITE 1, 44497 is a payload satellite owned by USAF AFSPC (US) in LEO that was launched on Mon, 19 Aug 2019 UTC via an ELECTRON launch vehicle from the Rocket Lab Launch Complex (RLLC). Payload-class satellites include a variety of spacecraft equipped with specific instruments for various scientific and technological missions. These include communications satellites like Starlink; space stations such as the ISS; scientific satellites like the Hubble; Earth observation satellites from companies like Planet Labs, Umbra, and HawkEye 360; GPS; miniature CubeSats for education and research; and military/defense satellites.

Not visible in the next 10 days
Identifier
44497, 2019-054C
Orbit
LEO
Last TLE update
14 hours ago
Origin
Manufacturer
Tiger Innov.
Mission
Operational Defense Technology
Bus & Motor
CUBESAT 6U, Unknown motor
Mass
10 kg wet, ~10 kg dry
Launch date (UTC)
2019-08-19 (6 years ago)
Launch vehicle
ELECTRON
Launch site
Rocket Lab Launch Complex (RLLC)
Object type
Payload
Rocket body
Debris
Shape & HBR
Box, 0.3 m
Radar Cross Section
0.105 m², Medium (>0.1 m² and < 1m²)

Expand to show TLE details & history

TLE from 14 hours ago
0 PEARL WHITE 1
1 44497U 19054C   25109.43780283  .00614038  15778-3  18101-2 0  9995
2 44497  44.9855 118.6925 0011841  78.2032 282.0203 15.91746333314539
Epoch: 2025-04-19T10:30Z
Definitive object data (Epoch: 2025-04-19T10:30:26.164Z)
Latitude
-0.00002°
Longitude
113.30246°
Altitude
295.756 km
Speed
7.733 km/s
True Right ascension
07h 54m 46s
True Declination
0° 00' 00"
Sunlit
Object was in daylight at TLE epoch
Visualization TLE readout
Latitude
17.64618°
Longitude
128.32768°
Altitude
290.533 km
Speed
7.739 km/s
Apparent Right ascension
12h 09m 05s
Apparent Declination
-33° 52' 41"
Sunlit
Object is in daylight
Visualization observer readout
Local Sidereal Time
07:02:46
Azimuth
124.315° SE
Elevation
-12.116°
Doppler factor
1
Orbital elements
Apogee altitude
306.959 km
Perigee altitude
291.146 km
Semi-major axis
6,677.189 km
Eccentricity
0.0011841
Inclination
44.9855°
RAAN
118.6925°
Arg. of periapsis
78.2032°
True anomaly
281.88755°
Mean anomaly
282.0203°
Eccentric anomaly
281.95393°
Mean motion
3.97789 °/min
BSTAR
0.0018101
Orbital period
90.5 mins
Loading maneuver chart data...
Loading SW <> Apogee altitude chart data...
Loading historical data...
Loading historical data...
Loading historical data...
Loading historical data...
Loading historical data...
Loading historical data...
Loading historical data...

PEARL WHITE 1 Visibility forecast

Observer location: undefined°, undefined°

PEARL WHITE 1 is not visible in the next 10 days
Span
Click to sort rows by Start time (UTC) header in descending order
Start Az.
Max El. time (UTC)
Max El. Az.
Max El.
End time (UTC)
End Az.
|